| time (UTC) | temp F | wind direction | speed MPH | gust MPH | rain 1hr in | rain 24hr in | rain mn in | humidity % | barometer mb |
| 20260903014937 | 49 | 140 | 0.0 | 0.0 | 0.00 | 0.00 | 0.00 | 99 | 1019.3 |
| 20260903013935 | 49 | 141 | 0.0 | 0.0 | 0.00 | 0.00 | 0.00 | 99 | 1019.6 |
| 20260903012935 | 49 | 141 | 0.0 | 0.0 | 0.00 | 0.00 | 0.00 | 99 | 1019.2 |
| 20260903011934 | 50 | 141 | 0.0 | 0.0 | 0.00 | 0.00 | 0.00 | 99 | 1019.3 |
| 20260903010935 | 50 | 141 | 0.0 | 0.0 | 0.00 | 0.00 | 0.00 | 99 | 1019.5 |
| 20260903005934 | 50 | 141 | 0.0 | 0.0 | 0.00 | 0.00 | 0.00 | 99 | 1019.6 |
| 20260903003936 | 51 | 141 | 0.0 | 0.0 | 0.00 | 0.00 | 0.00 | 99 | 1019.5 |
| 20260903001934 | 51 | 141 | 0.0 | 0.0 | 0.00 | 0.00 | 0.00 | 99 | 1019.5 |
| 20260902232947 | 52 | 141 | 0.0 | 0.0 | 0.00 | 0.00 | 0.00 | 99 | 1019.5 |
| 20260902231934 | 52 | 141 | 0.0 | 0.0 | 0.00 | 0.00 | 0.00 | 99 | 1019.1 |
| 20260902230934 | 53 | 141 | 0.0 | 0.0 | 0.00 | 0.00 | 0.00 | 99 | 1019.6 |
| 20260902225934 | 53 | 141 | 0.0 | 0.0 | 0.00 | 0.00 | 0.00 | 99 | 1019.6 |
| 20260902223935 | 53 | 141 | 0.0 | 0.0 | 0.00 | 0.00 | 0.00 | 99 | 1019.6 |
| 20260902222936 | 54 | 141 | 0.0 | 0.0 | 0.00 | 0.00 | 0.00 | 99 | 1019.6 |
| 20260902221934 | 54 | 141 | 0.0 | 0.0 | 0.00 | 0.00 | 0.00 | 99 | 1019.5 |
| 20260902220936 | 54 | 141 | 0.0 | 0.0 | 0.00 | 0.00 | 0.00 | 99 | 1019.6 |
| 20260902215934 | 54 | 141 | 0.0 | 0.0 | 0.00 | 0.00 | 0.00 | 99 | 1019.6 |
| 20260902214933 | 53 | 141 | 0.0 | 0.0 | 0.00 | 0.00 | 0.00 | 99 | 1019.4 |
| 20260902211935 | 55 | 141 | 0.0 | 0.0 | 0.00 | 0.00 | 0.00 | 99 | 1019.5 |
| 20260902205934 | 55 | 141 | 0.0 | 0.0 | 0.00 | 0.00 | 0.00 | 99 | 1019.3 |
| 20260902204934 | 56 | 141 | 0.0 | 0.0 | 0.00 | 0.00 | 0.00 | 99 | 1019.4 |
| 20260902201933 | 57 | 141 | 0.0 | 0.0 | 0.00 | 0.00 | 0.00 | 99 | 1019.7 |
| 20260902200948 | 57 | 141 | 0.0 | 0.0 | 0.00 | 0.00 | 0.00 | 99 | 1019.5 |
| 20260902195934 | 57 | 141 | 0.0 | 0.0 | 0.00 | 0.00 | 0.00 | 99 | 1019.5 |
| 20260902193935 | 57 | 141 | 0.0 | 0.0 | 0.00 | 0.00 | 0.00 | 98 | 1019.7 |
| 20260902190934 | 58 | 141 | 0.0 | 0.0 | 0.00 | 0.00 | 0.00 | 98 | 1019.9 |
| 20260902185934 | 58 | 139 | 0.0 | 0.0 | 0.00 | 0.00 | 0.00 | 97 | 1019.8 |
| 20260902184936 | 58 | 146 | 0.0 | 0.0 | 0.00 | 0.00 | 0.00 | 97 | 1019.8 |
| 20260902181929 | 58 | 146 | 0.0 | 0.0 | 0.00 | 0.00 | 0.00 | 96 | 1019.8 |
| 20260902180929 | 59 | 146 | 0.0 | 0.0 | 0.00 | 0.00 | 0.00 | 96 | 1019.5 |
| 20260902175929 | 59 | 146 | 0.0 | 0.0 | 0.00 | 0.00 | 0.00 | 95 | 1019.7 |
| 20260902174930 | 60 | 146 | 0.0 | 0.0 | 0.00 | 0.00 | 0.00 | 94 | 1019.2 |
| 20260902173929 | 61 | 146 | 0.0 | 0.0 | 0.00 | 0.00 | 0.00 | 93 | 1019.3 |
| 20260902172929 | 61 | 146 | 0.0 | 0.0 | 0.00 | 0.00 | 0.00 | 92 | 1019.2 |
| 20260902171929 | 62 | 146 | 0.0 | 0.0 | 0.00 | 0.00 | 0.00 | 90 | 1019.2 |
| 20260902165929 | 64 | 152 | 0.0 | 0.0 | 0.00 | 0.00 | 0.00 | 87 | 1019.2 |
| 20260902164932 | 65 | 152 | 0.0 | 0.0 | 0.00 | 0.00 | 0.00 | 83 | 1019.2 |
| 20260902162931 | 67 | 152 | 0.0 | 1.0 | 0.00 | 0.00 | 0.00 | 79 | 1019.2 |
| 20260902161929 | 68 | 159 | 0.0 | 1.0 | 0.00 | 0.00 | 0.00 | 77 | 1019.5 |
| 20260902160931 | 68 | 151 | 0.0 | 2.0 | 0.00 | 0.00 | 0.00 | 71 | 1019.2 |
| 20260902151929 | 70 | 152 | 0.0 | 2.0 | 0.00 | 0.00 | 0.00 | 67 | 1019.6 |
| 20260902145928 | 73 | 291 | 3.0 | 8.0 | 0.00 | 0.00 | 0.00 | 60 | 1019.5 |
| 20260902144931 | 73 | 224 | 1.0 | 4.0 | 0.00 | 0.00 | 0.00 | 62 | 1019.4 |
| 20260902143929 | 72 | 132 | 0.0 | 3.0 | 0.00 | 0.00 | 0.00 | 64 | 1019.6 |
| 20260902142931 | 75 | 168 | 1.0 | 4.0 | 0.00 | 0.00 | 0.00 | 63 | 1019.5 |
| 20260902141929 | 74 | 143 | 1.0 | 7.0 | 0.00 | 0.00 | 0.00 | 59 | 1019.6 |
| 20260902140928 | 74 | 157 | 0.0 | 4.0 | 0.00 | 0.00 | 0.00 | 63 | 1019.7 |
| 20260902134929 | 74 | 96 | 1.0 | 6.0 | 0.00 | 0.00 | 0.00 | 63 | 1019.7 |
| 20260902131930 | 73 | 277 | 3.0 | 8.0 | 0.00 | 0.04 | 0.00 | 58 | 1020.0 |
| 20260902130929 | 74 | 21 | 1.0 | 7.0 | 0.00 | 0.04 | 0.00 | 59 | 1019.9 |
| 20260902124928 | 75 | 252 | 4.0 | 7.0 | 0.00 | 0.04 | 0.00 | 59 | 1019.8 |
| 20260902123931 | 73 | 112 | 3.0 | 8.0 | 0.00 | 0.04 | 0.00 | 61 | 1020.1 |
| 20260902122931 | 71 | 175 | 4.0 | 8.0 | 0.00 | 0.04 | 0.00 | 64 | 1020.1 |
| 20260902121930 | 71 | 204 | 2.0 | 11.0 | 0.00 | 0.04 | 0.00 | 67 | 1020.3 |
| 20260902115929 | 76 | 147 | 1.0 | 7.0 | 0.00 | 0.04 | 0.00 | 61 | 1020.2 |
| 20260902114932 | 75 | 156 | 0.0 | 6.0 | 0.00 | 0.04 | 0.00 | 64 | 1020.4 |
| 20260902111931 | 72 | 184 | 1.0 | 6.0 | 0.00 | 0.04 | 0.00 | 71 | 1020.4 |
| 20260902110931 | 71 | 157 | 1.0 | 6.0 | 0.00 | 0.04 | 0.00 | 76 | 1020.5 |
| 20260902105936 | 71 | 146 | 0.0 | 4.0 | 0.00 | 0.04 | 0.00 | 71 | 1020.7 |
| 20260902104929 | 72 | 208 | 2.0 | 7.0 | 0.00 | 0.04 | 0.00 | 70 | 1020.3 |
| 20260902103929 | 70 | 237 | 3.0 | 8.0 | 0.00 | 0.04 | 0.00 | 70 | 1020.3 |
| 20260902102929 | 72 | 150 | 1.0 | 7.0 | 0.00 | 0.04 | 0.00 | 74 | 1020.7 |
| 20260902101929 | 71 | 303 | 3.0 | 6.0 | 0.00 | 0.04 | 0.00 | 67 | 1020.5 |
| 20260902100931 | 69 | 31 | 1.0 | 4.0 | 0.00 | 0.04 | 0.00 | 72 | 1020.8 |
| 20260902095931 | 68 | 256 | 2.0 | 6.0 | 0.00 | 0.04 | 0.00 | 72 | 1020.7 |
| 20260902094932 | 69 | 164 | 0.0 | 4.0 | 0.00 | 0.04 | 0.00 | 76 | 1020.6 |
| 20260902092920 | 67 | 108 | 0.0 | 6.0 | 0.00 | 0.04 | 0.00 | 77 | 1020.7 |
| 20260902091917 | 68 | 129 | 0.0 | 6.0 | 0.00 | 0.04 | 0.00 | 77 | 1020.7 |
| 20260902085909 | 71 | 141 | 1.0 | 6.0 | 0.00 | 0.04 | 0.00 | 72 | 1020.6 |
| 20260902084907 | 70 | 165 | 1.0 | 4.0 | 0.00 | 0.04 | 0.00 | 75 | 1020.7 |
| 20260902081908 | 69 | 205 | 1.0 | 3.0 | 0.00 | 0.04 | 0.00 | 76 | 1020.6 |
| 20260902080919 | 69 | 151 | 0.0 | 4.0 | 0.00 | 0.04 | 0.00 | 79 | 1020.7 |
| 20260902073907 | 66 | 105 | 1.0 | 4.0 | 0.00 | 0.04 | 0.00 | 83 | 1020.5 |
| 20260902072907 | 66 | 175 | 1.0 | 4.0 | 0.00 | 0.04 | 0.00 | 84 | 1020.3 |
| 20260902071908 | 64 | 180 | 2.0 | 4.0 | 0.00 | 0.04 | 0.00 | 85 | 1020.4 |
| 20260902065908 | 64 | 189 | 1.0 | 6.0 | 0.00 | 0.04 | 0.00 | 86 | 1020.2 |
| 20260902064907 | 63 | 149 | 1.0 | 2.0 | 0.00 | 0.04 | 0.00 | 88 | 1020.1 |
| 20260902063910 | 61 | 121 | 0.0 | 3.0 | 0.00 | 0.04 | 0.00 | 91 | 1020.2 |
| 20260902051909 | 57 | 175 | 1.0 | 1.0 | 0.00 | 0.04 | 0.00 | 99 | 1019.6 |
| 20260902044907 | 54 | 139 | 0.0 | 1.0 | 0.00 | 0.04 | 0.00 | 99 | 1019.4 |
| 20260902043907 | 54 | 147 | 0.0 | 0.0 | 0.00 | 0.04 | 0.00 | 99 | 1019.2 |
| 20260902042908 | 54 | 129 | 0.0 | 1.0 | 0.00 | 0.04 | 0.00 | 99 | 1019.6 |
| 20260902041911 | 54 | 150 | 0.0 | 1.0 | 0.00 | 0.04 | 0.00 | 99 | 1019.3 |
| 20260902040907 | 54 | 133 | 0.0 | 0.0 | 0.00 | 0.04 | 0.00 | 99 | 1019.4 |
| 20260902035910 | 54 | 130 | 0.0 | 1.0 | 0.00 | 0.04 | 0.00 | 99 | 1019.2 |
| 20260902034908 | 53 | 140 | 0.0 | 0.0 | 0.00 | 0.04 | 0.00 | 99 | 1019.2 |
| 20260902033908 | 54 | 141 | 0.0 | 0.0 | 0.00 | 0.04 | 0.00 | 99 | 1019.2 |
| 20260902032908 | 54 | 139 | 0.0 | 0.0 | 0.00 | 0.04 | 0.00 | 99 | 1019.5 |
| 20260902024908 | 54 | 143 | 0.0 | 0.0 | 0.00 | 0.04 | 0.00 | 99 | 1019.3 |
| 20260902023907 | 54 | 143 | 0.0 | 0.0 | 0.00 | 0.04 | 0.00 | 99 | 1019.5 |
| 20260902022908 | 54 | 137 | 0.0 | 0.0 | 0.00 | 0.04 | 0.00 | 99 | 1019.4 |
| 20260902021907 | 54 | 132 | 0.0 | 2.0 | 0.00 | 0.04 | 0.00 | 99 | 1019.5 |